Preview of NWS' New Version of Forecast
This preview is not operational and should not be used for support decisions.

Regional Weather Roundup (RWR)

Issued by National Weather Service (NWS)

                            
000
ASUS43 KMKX 182320
RWRWI 

WISCONSIN REGIONAL WEATHER ROUNDUP
NATIONAL WEATHER SERVICE MILWAUKEE/SULLIVAN WI
600 PM CDT THU APR 18 2019

NOTE: "FAIR" INDICATES FEW OR NO CLOUDS BELOW 12,000 FEET WITH NO
SIGNIFICANT WEATHER AND/OR OBSTRUCTIONS TO VISIBILITY.

WIZ001-002-006>008-014>016-023>028-190000-
NORTHWEST WISCONSIN
  
CITY           SKY/WX    TMP DP  RH WIND       PRES   REMARKS
SUPERIOR ARPT  CLOUDY    49  37  63 NE5       29.91R                  
ASHLAND        CLOUDY    47  40  76 N5        29.88R                  
HAYWARD        PTSUNNY   48  39  71 N7        29.88R                  
SIREN          CLOUDY    52  36  55 NE9G18    29.90R                  
CUMBERLAND     CLOUDY    46  36  66 N13G22    29.89R                  
RICE LAKE      PTSUNNY   48  39  72 NW9G18    29.89R                  
CHETEK         FAIR      46  37  73 N5G17     29.88R                  
LADYSMITH      CLOUDY    45  39  81 N9        29.87R                  
EAU CLAIRE     CLOUDY    48  36  63 N15G22    29.85R                  
MENOMONIE      FAIR      47  34  60 N12       29.88R                  
NEW RICHMOND   FAIR      49  40  70 N13       29.90R                  
OSCEOLA        PTSUNNY   51  40  68 N10G16    29.93R                  
$$
 
WIZ003>005-009-010-017-018-190000-
NORTH CENTRAL WISCONSIN
  
CITY           SKY/WX    TMP DP  RH WIND       PRES   REMARKS
MANITOWISH WTR DRIZZLE   38  38 100 N8        29.83R WCI  32          
ARBOR VITAE    RAIN      39  37  92 N7        29.81S WCI  34          
WOODRUFF       RAIN      39  37  92 N7        29.81S WCI  34          
RHINELANDER    CLOUDY    41  34  76 MISG      29.80R                  
EAGLE RIVER    DRIZZLE   38  36  92 N10       29.79S WCI  32          
LAND O LAKES   CLOUDY    39  36  89 N9G16     29.81S WCI  33          
PHILLIPS       CLOUDY    40  39  95 N9        29.82S WCI  34          
TOMAHAWK       CLOUDY    38  35  87 NW9       29.82S WCI  32          
MEDFORD        DRIZZLE   38  36  94 N9        29.83R WCI  31          
MERRILL        LGT RAIN  40  37  89 N12       29.82R WCI  33          
$$
 
WIZ029-030-035-036-043>047-190000-
CENTRAL WISCONSIN
  
CITY           SKY/WX    TMP DP  RH WIND       PRES   REMARKS
WAUSAU         CLOUDY    40  35  83 N9G23     29.77R WCI  34          
MOSINEE        CLOUDY    39  36  87 N13G18    29.79R WCI  32          
MARSHFIELD     LGT RAIN  41  37  86 N12G24    29.80R                  
STEVENS POINT  DRIZZLE   39  35  83 NW14      29.81R WCI  31          
WAUPACA        CLOUDY    46  37  72 NW10      29.79R                  
WAUTOMA        LGT RAIN  45  36  70 NW9G18    29.80R                  
WISC RAPIDS    CLOUDY    43  33  68 N15G25    29.81R                  
CAMP DOUGLAS   CLOUDY    44  38  82 N18       29.82R                  
$$
 
WIZ011>013-019>022-031-037>040-048>050-190000-
NORTHEAST WISCONSIN
  
CITY           SKY/WX    TMP DP  RH WIND       PRES   REMARKS
ANTIGO         DRIZZLE   38  36  92 N13       29.79R WCI  30          
SHAWANO        CLOUDY    45  37  73 N8G16     29.77R                  
OCONTO         CLOUDY    41  38  87 NW7       29.76R                  
STURGEON BAY   CLOUDY    41  36  82 NW14      29.72                   
GREEN BAY      CLOUDY    45  37  73 N16G30    29.76R                  
MANITOWOC      LGT RAIN  42  39  89 N14       29.74R                  
APPLETON       CLOUDY    45  34  65 N16G24    29.72R                  
CLINTONVILLE   DRIZZLE   43  36  78 N10G16    29.78R                  
OSHKOSH        LGT RAIN  44  37  76 N14G23    29.76R                  
$$
 
WIZ032>034-041-042-053>061-190000-
SOUTHWEST WISCONSIN
  
CITY           SKY/WX    TMP DP  RH WIND       PRES   REMARKS
LA CROSSE      CLOUDY    50  35  56 N9        29.84R                  
SPARTA         CLOUDY    45  37  73 N10G18      N/A                   
VIROQUA        CLOUDY    44  38  80 N14G24    29.84R                  
BOSCOBEL       CLOUDY    49  35  58 N13       29.84R                  
PRAIRIE DU CHI CLOUDY    48  34  57 NW17G24   29.84R                  
PLATTEVILLE    CLOUDY    46  38  73 N17G24    29.81R                  
$$

WIZ056-057-062-063-064-067-068-190000-
SOUTH CENTRAL WISCONSIN
  
CITY           SKY/WX    TMP DP  RH WIND       PRES   REMARKS
REEDSBURG      CLOUDY    43  36  75 N13G18    29.81R                  
BARABOO/DELLS  CLOUDY    43  35  72 N12G17    29.81R                  
LONE ROCK      CLOUDY    46  35  65 N13G21    29.82R                  
MINERAL POINT  CLOUDY    45  37  76 N16G22    29.81R                  
MADISON        CLOUDY    44  36  73 N9G22     29.78R                  
MIDDLETON      CLOUDY    45  38  75 N15G21    29.80R                  
WATERTOWN      CLOUDY    43  40  87 NW10G16   29.77R                  
MONROE         CLOUDY    45  35  67 MISG      29.79R                  
JANESVILLE     CLOUDY    46  37  71 NW14G20   29.76R                  
$$
 
WIZ051-052-058>065-066-070>072-190000-
SOUTHEAST WISCONSIN
  
CITY           SKY/WX    TMP DP  RH WIND       PRES   REMARKS
MILWAUKEE      CLOUDY    46  36  68 NW14G23   29.73R                  
WAUKESHA       CLOUDY    41  37  87 NW12      29.77R                  
MILWAUKEE/TIMM CLOUDY    43  36  75 NW13      29.75R                  
RACINE         CLOUDY    45  37  73 NW12      29.75R                  
KENOSHA        CLOUDY    45  40  82 NW14G24   29.74R                  
FOND DU LAC    LGT RAIN  43  39  86 NW13      29.76R                  
SHEBOYGAN      CLOUDY    44  40  85 NW9       29.75R                  
WEST BEND      DRIZZLE   41  39  93 NW9       29.75R                  
JUNEAU         CLOUDY    43  37  81 NW9       29.78R                  
$$

LSZ147-162-190000-
LAKE SUPERIOR
  
STATION/POSITION TIME  TEMP    WIND        PRES    WAVE
                       AIR SEA DIR/SP/G            HT/PER
                 (UTC) (F)     (DEG/KT/KT) (MB)    (FT/S)
$$
 
LMZ867-665-643>646-190000-
LAKE MICHIGAN
  
STATION/POSITION TIME  TEMP    WIND        PRES    WAVE
                       AIR SEA DIR/SP/G            HT/PER
                 (UTC) (F)     (DEG/KT/KT) (MB)    (FT/S)
NORTHPORT PIER   2240   37     310/  7/  9 1005.4R
KEWAUNEE LAKESHO 2254   43     330/  6/ 14 1006.0R
SHEBOYGAN LAKESH 2300   43     320/ 12/ 14 1007.4R
MILWAUKEE LAKESH 2300   45                   N/A
KENOSHA   LAKESH 2300   45     320/ 15/ 20 1007.1
$$

TC  - TEMPERATURE IN CELSIUS
VSB - VISIBILITY IN STATUTE MILES
WCI - WIND CHILL INDEX
HX  - HEAT INDEX